Regional Weather Roundup
Issued by NWS

Home | Current Version | Previous Version | Text Only | Print | Product List | Glossary On
Versions: 1 2 3 4 5 6 7 8 9 10 11 12 13 14 15 16 17 18 19 20 21 22 23 24 25 26 27 28 29 30 31 32 33 34 35 36 37 38 39 40 41 42 43 44 45 46 47 48 49 50
000
ASUS45 KCYS 240710
RWRWY

WYOMING REGIONAL WEATHER ROUNDUP
NATIONAL WEATHER SERVICE CHEYENNE WY
100 AM MDT SUN SEP 24 2017

NOTE:  "FAIR" INDICATES FEW OR NO CLOUDS BELOW 12,000 FEET
WITH NO SIGNIFICANT WEATHER AND/OR OBSTRUCTIONS TO VISIBILITY.

WYZ001-240800-
YELLOWSTONE NATIONAL PARK

CITY           SKY/WX    TMP DP  RH WIND       PRES   REMARKS
LK YELLOWSTONE NOT AVBL
W YELLOWSTONE  NOT AVBL

$$
WYZ002>013-054>058-071-098>099-240800-
NORTHERN WYOMING

CITY           SKY/WX    TMP DP  RH WIND       PRES   REMARKS
JACKSON        CLOUDY    40  34  79 NE13      29.98S WCI  32
CODY           MOCLDY    39  33  79 CALM      30.09F
GREYBULL       CLOUDY    43  40  89 NW7       30.04S
WORLAND        LGT RAIN  41  40  96 SW6       30.06S
SHERIDAN       CLOUDY    40  40 100 N5        30.08S
BUFFALO        CLOUDY    38  34  85 N12       30.07S WCI  30
GILLETTE       LGT RAIN  40  40 100 N13       30.04R WCI  32
HULETT         LGT RAIN  41  41 100 N8        30.03F VSB 1/2
NEWCASTLE      CLOUDY    43  43 100 N10       29.98F FOG

$$
WYZ014>020-022>026-101>103-240800-
CENTRAL WYOMING

CITY           SKY/WX    TMP DP  RH WIND       PRES   REMARKS
BIG PINEY      LGT RAIN  38  36  92 CALM      29.96S
PINEDALE       PTSUNNY   36  34  93 W3        29.97S
DUBOIS         CLOUDY    34  32  93 SE12G17   30.03R WCI  25
LANDER         LGT RAIN  38  37  97 NW6       30.04F WCI  33
RIVERTON       CLOUDY    38  36  92 N8        30.05S WCI  32
CASPER         CLOUDY    37  36  96 N10       30.03S WCI  30
DOUGLAS        CLOUDY    42  40  92 N9        30.01S

$$
WYZ021-027>030-104>119-240800-
SOUTHERN WYOMING

CITY           SKY/WX    TMP DP  RH WIND       PRES   REMARKS
EVANSTON       FOG       33  33 100 N7        29.93S VSB 1/2 WCI  27
KEMMERER       LGT SNOW  32  32 100 NE15      29.95F WCI  22
FORT BRIDGER   DRIZZLE   36  36 100 W5        29.96F WCI  32
ROCK SPRINGS   CLOUDY    36  33  89 NE20G30   29.95F WCI  25
DIXON          FAIR      37  33  86 CALM      29.92S
RAWLINS        CLOUDY    40  36  86 NE13      29.96S WCI  32
SARATOGA       CLOUDY    37  37 100 W3        29.95S
LARAMIE        FAIR      39  36  89 SE8       29.97S WCI  33
CHEYENNE       CLOUDY    42  41  96 CALM      30.00R
TORRINGTON     CLOUDY    44  43  96 W7        29.97S
PINE BLUFFS    CLOUDY    41  41 100 MISG      29.98R

$$



USA.gov is the U.S. government's official web portal to all federal, state and local government web resources and services.